owner,sensor,date,latitude,longitude,vertical_datum,wind_speed,wind_to_direction,wind_speed_of_gust,qcFlag 
TABS,ioos:station:wmo:42046:1,2009-02-01T00:00:00Z,27.8903,-94.0367,4.0,4.574986339,171.9586829,6.19,'11111222,11111222,11111222' 
TABS,ioos:station:wmo:42046:1,2009-02-01T00:30:00Z,27.8903,-94.0367,4.0,4.679326875,167.0331568,6.95,'11111222,11111222,11111222' 
TABS,ioos:station:wmo:42046:1,2009-02-01T01:00:00Z,27.8903,-94.0367,4.0,4.296975681,155.8211599,7.14,'11111222,11111222,11111222' 
TABS,ioos:station:wmo:42046:1,2009-02-01T01:30:00Z,27.8903,-94.0367,4.0,4.754639839,144.0703779,7.94,'11111222,11111222,11111222' 
TABS,ioos:station:wmo:42046:1,2009-02-01T02:00:00Z,27.8903,-94.0367,4.0,4.353492851,144.6309069,6.59,'11111222,11111222,11111222' 
TABS,ioos:station:wmo:42046:1,2009-02-01T02:30:00Z,27.8903,-94.0367,4.0,5.03035784,143.8138137,6.84,'11111222,11111222,11111222' 
TABS,ioos:station:wmo:42046:1,2009-02-01T03:00:00Z,27.8903,-94.0367,4.0,4.808846015,152.1030047,6.53,'11111222,11111222,11111222' 
TABS,ioos:station:wmo:42046:1,2009-02-01T03:30:00Z,27.8903,-94.0367,4.0,5.668509504,143.8986079,8.08,'11111222,11111222,11111222' 
TABS,ioos:station:wmo:42046:1,2009-02-01T04:00:00Z,27.8903,-94.0367,4.0,6.257555433,150.1986142,9.15,'11111222,11111222,11111222' 
TABS,ioos:station:wmo:42046:1,2009-02-01T04:30:00Z,27.8903,-94.0367,4.0,6.266737588,150.9811955,8.35,'11111222,11111222,11111222' 
TABS,ioos:station:wmo:42046:1,2009-02-01T05:00:00Z,27.8903,-94.0367,4.0,6.417016441,157.0713264,8.75,'11111222,11111222,11111222' 
TABS,ioos:station:wmo:42046:1,2009-02-01T05:30:00Z,27.8903,-94.0367,4.0,6.585468852,160.2996126,8.41,'11111222,11111222,11111222' 
TABS,ioos:station:wmo:42046:1,2009-02-01T06:00:00Z,27.8903,-94.0367,4.0,6.841125638,155.1958804,9.39,'11111222,11111222,11111222' 
TABS,ioos:station:wmo:42046:1,2009-02-01T06:30:00Z,27.8903,-94.0367,4.0,6.927192794,160.2574122,8.85,'11111222,11111222,11111222' 
TABS,ioos:station:wmo:42046:1,2009-02-01T07:00:00Z,27.8903,-94.0367,4.0,6.58046351,150.9033897,8.67,'11111222,11111222,11111222' 
TABS,ioos:station:wmo:42046:1,2009-02-01T07:30:00Z,27.8903,-94.0367,4.0,6.777647084,154.9476264,8.73,'11111222,11111222,11111222' 
TABS,ioos:station:wmo:42046:1,2009-02-01T08:00:00Z,27.8903,-94.0367,4.0,6.906554858,152.2108247,10.05,'11111222,11111222,11111222' 
TABS,ioos:station:wmo:42046:1,2009-02-01T08:30:00Z,27.8903,-94.0367,4.0,7.043649622,153.2533311,8.89,'11111222,11111222,11111222' 
TABS,ioos:station:wmo:42046:1,2009-02-01T09:00:00Z,27.8903,-94.0367,4.0,6.504290891,145.6505569,8.55,'11111222,11111222,11111222' 
TABS,ioos:station:wmo:42046:1,2009-02-01T09:30:00Z,27.8903,-94.0367,4.0,5.912740481,141.3858933,7.73,'11111222,11111222,11111222' 
TABS,ioos:station:wmo:42046:1,2009-02-01T10:00:00Z,27.8903,-94.0367,4.0,5.671066919,142.0189827,7.16,'11111222,11111222,11111222' 
TABS,ioos:station:wmo:42046:1,2009-02-01T10:30:00Z,27.8903,-94.0367,4.0,5.625237773,155.5310242,7.15,'11111222,11111222,11111222' 
TABS,ioos:station:wmo:42046:1,2009-02-01T11:00:00Z,27.8903,-94.0367,4.0,4.8953243,169.2871125,6.64,'11111222,11111222,11111222' 
TABS,ioos:station:wmo:42046:1,2009-02-01T11:30:00Z,27.8903,-94.0367,4.0,5.984413087,185.1772912,8.45,'11111222,11111222,11111222' 
TABS,ioos:station:wmo:42046:1,2009-02-01T12:00:00Z,27.8903,-94.0367,4.0,6.97401606,189.9082244,8.59,'11111222,11111222,11111222' 
TABS,ioos:station:wmo:42046:1,2009-02-01T12:30:00Z,27.8903,-94.0367,4.0,6.846152204,183.9367504,8.3,'11111222,11111222,11111222' 
TABS,ioos:station:wmo:42046:1,2009-02-01T13:00:00Z,27.8903,-94.0367,4.0,7.684399781,198.199333,10.18,'11111222,11111222,11111222' 
TABS,ioos:station:wmo:42046:1,2009-02-01T13:30:00Z,27.8903,-94.0367,4.0,7.639947644,193.7817755,10.26,'11111222,11111222,11111222' 
TABS,ioos:station:wmo:42046:1,2009-02-01T14:00:00Z,27.8903,-94.0367,4.0,6.256644468,172.2845549,8.17,'11111222,11111222,11111222' 
TABS,ioos:station:wmo:42046:1,2009-02-01T14:30:00Z,27.8903,-94.0367,4.0,4.843810483,171.4519182,6.68,'11111222,11111222,11111222' 
TABS,ioos:station:wmo:42046:1,2009-02-01T15:00:00Z,27.8903,-94.0367,4.0,5.354941643,182.4618719,7.34,'11111222,11111222,11111222' 
TABS,ioos:station:wmo:42046:1,2009-02-01T15:30:00Z,27.8903,-94.0367,4.0,7.61120884,196.1730546,10.14,'11111222,11111222,11111222' 
TABS,ioos:station:wmo:42046:1,2009-02-01T16:00:00Z,27.8903,-94.0367,4.0,6.709545439,205.4194394,8.5,'11111222,11111222,11111222' 
TABS,ioos:station:wmo:42046:1,2009-02-01T16:30:00Z,27.8903,-94.0367,4.0,6.910065123,180.2489599,8.69,'11111222,11111222,11111222' 
TABS,ioos:station:wmo:42046:1,2009-02-01T17:00:00Z,27.8903,-94.0367,4.0,4.263050551,162.2453398,6.0,'11111222,11111222,11111222' 
TABS,ioos:station:wmo:42046:1,2009-02-01T17:30:00Z,27.8903,-94.0367,4.0,7.422412007,201.414539,9.17,'11111222,11111222,11111222' 
TABS,ioos:station:wmo:42046:1,2009-02-01T18:00:00Z,27.8903,-94.0367,4.0,7.532569283,198.5794374,9.74,'11111222,11111222,11111222' 
TABS,ioos:station:wmo:42046:1,2009-02-01T18:30:00Z,27.8903,-94.0367,4.0,8.002649561,192.2649555,9.62,'11111222,11111222,11111222' 
TABS,ioos:station:wmo:42046:1,2009-02-01T19:00:00Z,27.8903,-94.0367,4.0,7.989123857,194.053815,10.28,'11111222,11111222,11111222' 
TABS,ioos:station:wmo:42046:1,2009-02-01T19:30:00Z,27.8903,-94.0367,4.0,8.497534937,197.8167651,10.68,'11111222,11111222,11111222' 
TABS,ioos:station:wmo:42046:1,2009-02-01T20:00:00Z,27.8903,-94.0367,4.0,6.839795319,194.5646639,8.8,'11111222,11111222,11111222' 
TABS,ioos:station:wmo:42046:1,2009-02-01T20:30:00Z,27.8903,-94.0367,4.0,5.822482289,187.6988798,8.55,'11111222,11111222,11111222' 
TABS,ioos:station:wmo:42046:1,2009-02-01T21:00:00Z,27.8903,-94.0367,4.0,8.072031962,194.6389673,10.06,'11111222,11111222,11111222' 
TABS,ioos:station:wmo:42046:1,2009-02-01T21:30:00Z,27.8903,-94.0367,4.0,7.306579227,190.2489225,9.12,'11111222,11111222,11111222' 
TABS,ioos:station:wmo:42046:1,2009-02-01T22:00:00Z,27.8903,-94.0367,4.0,6.996177528,187.8870754,8.9,'11111222,11111222,11111222' 
TABS,ioos:station:wmo:42046:1,2009-02-01T22:30:00Z,27.8903,-94.0367,4.0,6.272264344,194.5903061,8.14,'11111222,11111222,11111222' 
TABS,ioos:station:wmo:42046:1,2009-02-01T23:00:00Z,27.8903,-94.0367,4.0,6.485838419,198.5189225,9.01,'11111222,11111222,11111222' 
TABS,ioos:station:wmo:42046:1,2009-02-01T23:30:00Z,27.8903,-94.0367,4.0,5.877627072,191.482175,7.7,'11111222,11111222,11111222' 
TABS,ioos:station:wmo:42046:1,2009-02-02T00:00:00Z,27.8903,-94.0367,4.0,6.759622771,195.6195661,9.4,'11111222,11111222,11111222' 
TABS,ioos:station:wmo:42046:1,2009-02-02T00:30:00Z,27.8903,-94.0367,4.0,6.220289382,204.5050933,7.94,'11111222,11111222,11111222' 
TABS,ioos:station:wmo:42046:1,2009-02-02T01:00:00Z,27.8903,-94.0367,4.0,6.880588638,208.092225,9.36,'11111222,11111222,11111222' 
TABS,ioos:station:wmo:42046:1,2009-02-02T01:30:00Z,27.8903,-94.0367,4.0,7.289396408,182.909711,9.5,'11111222,11111222,11111222' 
TABS,ioos:station:wmo:42046:1,2009-02-02T02:00:00Z,27.8903,-94.0367,4.0,6.529318494,165.4532052,8.23,'11111222,11111222,11111222' 
TABS,ioos:station:wmo:42046:1,2009-02-02T02:30:00Z,27.8903,-94.0367,4.0,4.112857887,144.3006726,5.53,'11111222,11111222,11111222' 
TABS,ioos:station:wmo:42046:1,2009-02-02T03:00:00Z,27.8903,-94.0367,4.0,7.046374955,160.6910225,9.2,'11111222,11111222,11111222' 
TABS,ioos:station:wmo:42046:1,2009-02-02T03:30:00Z,27.8903,-94.0367,4.0,8.666008308,223.2700688,12.83,'11111222,11111222,11111222' 
TABS,ioos:station:wmo:42046:1,2009-02-02T04:00:00Z,27.8903,-94.0367,4.0,6.5375913,230.0262039,8.57,'11111222,11111222,11111222' 
TABS,ioos:station:wmo:42046:1,2009-02-02T04:30:00Z,27.8903,-94.0367,4.0,4.135371809,210.037169,6.09,'11111222,11111222,11111222' 
TABS,ioos:station:wmo:42046:1,2009-02-02T05:00:00Z,27.8903,-94.0367,4.0,6.081422531,184.8107854,7.79,'11111222,11111222,11111222' 
TABS,ioos:station:wmo:42046:1,2009-02-02T05:30:00Z,27.8903,-94.0367,4.0,5.882176468,199.0511746,9.11,'11111222,11111222,11111222' 
TABS,ioos:station:wmo:42046:1,2009-02-02T06:00:00Z,27.8903,-94.0367,4.0,4.564219539,197.2044219,6.84,'11111222,11111222,11111222' 
TABS,ioos:station:wmo:42046:1,2009-02-02T06:30:00Z,27.8903,-94.0367,4.0,2.798463864,213.6334146,4.68,'11111222,11111222,11111222' 
TABS,ioos:station:wmo:42046:1,2009-02-02T07:00:00Z,27.8903,-94.0367,4.0,5.373136886,202.8907086,6.63,'11111222,11111222,11111222' 
TABS,ioos:station:wmo:42046:1,2009-02-02T07:30:00Z,27.8903,-94.0367,4.0,5.50313547,193.9859181,6.99,'11111222,11111222,11111222' 
TABS,ioos:station:wmo:42046:1,2009-02-02T08:00:00Z,27.8903,-94.0367,4.0,6.919609816,207.6391356,10.66,'11111222,11111222,11111222' 
TABS,ioos:station:wmo:42046:1,2009-02-02T08:30:00Z,27.8903,-94.0367,4.0,0.940478602,358.1718256,2.83,'11111222,11111222,11111222' 
TABS,ioos:station:wmo:42046:1,2009-02-02T09:00:00Z,27.8903,-94.0367,4.0,1.687720356,40.67463399,3.66,'11111222,11111222,11111222' 
TABS,ioos:station:wmo:42046:1,2009-02-02T09:30:00Z,27.8903,-94.0367,4.0,1.261427762,182.7265151,2.82,'11111222,11111222,11111222' 
TABS,ioos:station:wmo:42046:1,2009-02-02T10:00:00Z,27.8903,-94.0367,4.0,3.068892308,218.251722,4.45,'11111222,11111222,11111222' 
TABS,ioos:station:wmo:42046:1,2009-02-02T10:30:00Z,27.8903,-94.0367,4.0,5.798637771,233.9799754,7.17,'11111222,11111222,11111222' 
TABS,ioos:station:wmo:42046:1,2009-02-02T11:00:00Z,27.8903,-94.0367,4.0,6.457840196,243.7127577,7.91,'11111222,11111222,11111222' 
TABS,ioos:station:wmo:42046:1,2009-02-02T11:30:00Z,27.8903,-94.0367,4.0,6.51627194,248.6721484,8.44,'11111222,11111222,11111222' 
TABS,ioos:station:wmo:42046:1,2009-02-02T12:00:00Z,27.8903,-94.0367,4.0,7.403627489,250.7574774,9.45,'11111222,11111222,11111222' 
TABS,ioos:station:wmo:42046:1,2009-02-02T12:30:00Z,27.8903,-94.0367,4.0,10.40711295,276.5104097,13.68,'11111222,11111222,11111222' 
TABS,ioos:station:wmo:42046:1,2009-02-02T13:00:00Z,27.8903,-94.0367,4.0,10.26292843,327.8583732,13.48,'11111222,11111222,11111222' 
TABS,ioos:station:wmo:42046:1,2009-02-02T13:30:00Z,27.8903,-94.0367,4.0,9.436233359,333.2990291,12.64,'11111222,11111222,11111222' 
TABS,ioos:station:wmo:42046:1,2009-02-02T14:00:00Z,27.8903,-94.0367,4.0,9.472449525,49.75265917,12.04,'11111222,11111222,11111222' 
TABS,ioos:station:wmo:42046:1,2009-02-02T14:30:00Z,27.8903,-94.0367,4.0,8.291646399,46.85674238,10.74,'11111222,11111222,11111222' 
TABS,ioos:station:wmo:42046:1,2009-02-02T15:00:00Z,27.8903,-94.0367,4.0,7.826122923,35.00972089,10.13,'11111222,11111222,11111222' 
TABS,ioos:station:wmo:42046:1,2009-02-02T15:30:00Z,27.8903,-94.0367,4.0,8.056556336,46.45816966,10.37,'11111222,11111222,11111222' 
TABS,ioos:station:wmo:42046:1,2009-02-02T16:00:00Z,27.8903,-94.0367,4.0,7.990919847,35.32067203,9.97,'11111222,11111222,11111222' 
TABS,ioos:station:wmo:42046:1,2009-02-02T16:30:00Z,27.8903,-94.0367,4.0,8.172153939,30.51858463,10.66,'11111222,11111222,11111222' 
TABS,ioos:station:wmo:42046:1,2009-02-02T17:00:00Z,27.8903,-94.0367,4.0,8.684987047,31.43866362,11.7,'11111222,11111222,11111222' 
TABS,ioos:station:wmo:42046:1,2009-02-02T17:30:00Z,27.8903,-94.0367,4.0,9.024017952,36.75531459,11.17,'11111222,11111222,11111222' 
TABS,ioos:station:wmo:42046:1,2009-02-02T18:00:00Z,27.8903,-94.0367,4.0,9.117510625,39.74894549,11.42,'11111222,11111222,11111222' 
TABS,ioos:station:wmo:42046:1,2009-02-02T18:30:00Z,27.8903,-94.0367,4.0,8.68663341,33.54342957,11.34,'11111222,11111222,11111222' 
TABS,ioos:station:wmo:42046:1,2009-02-02T19:00:00Z,27.8903,-94.0367,4.0,9.199739127,20.08926757,11.76,'11111222,11111222,11111222' 
TABS,ioos:station:wmo:42046:1,2009-02-02T19:30:00Z,27.8903,-94.0367,4.0,9.634339624,31.89162885,12.23,'11111222,11111222,11111222' 
TABS,ioos:station:wmo:42046:1,2009-02-02T20:00:00Z,27.8903,-94.0367,4.0,9.449201024,16.28663582,12.23,'11111222,11111222,11111222' 
TABS,ioos:station:wmo:42046:1,2009-02-02T20:30:00Z,27.8903,-94.0367,4.0,8.795112279,13.27758034,11.35,'11111222,11111222,11111222' 
TABS,ioos:station:wmo:42046:1,2009-02-02T21:00:00Z,27.8903,-94.0367,4.0,9.310402784,16.21564787,12.08,'11111222,11111222,11111222' 
TABS,ioos:station:wmo:42046:1,2009-02-02T21:30:00Z,27.8903,-94.0367,4.0,8.833147797,20.75317385,11.31,'11111222,11111222,11111222' 
TABS,ioos:station:wmo:42046:1,2009-02-02T22:00:00Z,27.8903,-94.0367,4.0,9.085240778,19.95052153,12.02,'11111222,11111222,11111222' 
TABS,ioos:station:wmo:42046:1,2009-02-02T22:30:00Z,27.8903,-94.0367,4.0,9.53311072,20.83012839,13.09,'11111222,11111222,11111222' 
TABS,ioos:station:wmo:42046:1,2009-02-02T23:00:00Z,27.8903,-94.0367,4.0,9.408001913,25.09388695,12.05,'11111222,11111222,11111222' 
TABS,ioos:station:wmo:42046:1,2009-02-02T23:30:00Z,27.8903,-94.0367,4.0,9.552821573,26.08196155,12.14,'11111222,11111222,11111222' 
TABS,ioos:station:wmo:42046:1,2009-02-03T00:00:00Z,27.8903,-94.0367,4.0,9.652067136,25.66214153,12.19,'11111222,11111222,11111222' 
TABS,ioos:station:wmo:42046:1,2009-02-03T00:30:00Z,27.8903,-94.0367,4.0,9.373761251,17.70017594,12.16,'11111222,11111222,11111222' 
TABS,ioos:station:wmo:42046:1,2009-02-03T01:00:00Z,27.8903,-94.0367,4.0,8.489157791,20.91126318,11.96,'11111222,11111222,11111222' 
TABS,ioos:station:wmo:42046:1,2009-02-03T01:30:00Z,27.8903,-94.0367,4.0,8.974552914,18.51545016,11.98,'11111222,11111222,11111222' 
TABS,ioos:station:wmo:42046:1,2009-02-03T02:00:00Z,27.8903,-94.0367,4.0,8.511151508,25.84222337,11.1,'11111222,11111222,11111222' 
TABS,ioos:station:wmo:42046:1,2009-02-03T02:30:00Z,27.8903,-94.0367,4.0,8.222165165,18.8754223,10.85,'11111222,11111222,11111222' 
TABS,ioos:station:wmo:42046:1,2009-02-03T03:00:00Z,27.8903,-94.0367,4.0,8.577977617,25.99721778,11.38,'11111222,11111222,11111222' 
TABS,ioos:station:wmo:42046:1,2009-02-03T03:30:00Z,27.8903,-94.0367,4.0,7.883964739,20.80245585,11.09,'11111222,11111222,11111222' 
TABS,ioos:station:wmo:42046:1,2009-02-03T04:00:00Z,27.8903,-94.0367,4.0,7.436403701,19.72612654,10.83,'11111222,11111222,11111222' 
TABS,ioos:station:wmo:42046:1,2009-02-03T04:30:00Z,27.8903,-94.0367,4.0,7.340061308,28.83445464,10.2,'11111222,11111222,11111222' 
TABS,ioos:station:wmo:42046:1,2009-02-03T05:00:00Z,27.8903,-94.0367,4.0,7.072001131,36.83719393,9.05,'11111222,11111222,11111222' 
TABS,ioos:station:wmo:42046:1,2009-02-03T05:30:00Z,27.8903,-94.0367,4.0,6.929256814,31.78597841,9.65,'11111222,11111222,11111222' 
TABS,ioos:station:wmo:42046:1,2009-02-03T06:00:00Z,27.8903,-94.0367,4.0,6.361147695,24.02623994,8.94,'11111222,11111222,11111222' 
TABS,ioos:station:wmo:42046:1,2009-02-03T06:30:00Z,27.8903,-94.0367,4.0,6.020573062,35.19443312,8.13,'11111222,11111222,11111222' 
TABS,ioos:station:wmo:42046:1,2009-02-03T07:00:00Z,27.8903,-94.0367,4.0,5.961560198,27.03757514,7.85,'11111222,11111222,11111222' 
TABS,ioos:station:wmo:42046:1,2009-02-03T07:30:00Z,27.8903,-94.0367,4.0,5.749478237,33.57922243,7.86,'11111222,11111222,11111222' 
TABS,ioos:station:wmo:42046:1,2009-02-03T08:00:00Z,27.8903,-94.0367,4.0,5.647831442,34.75902277,7.27,'11111222,11111222,11111222' 
TABS,ioos:station:wmo:42046:1,2009-02-03T08:30:00Z,27.8903,-94.0367,4.0,5.022837843,33.87960303,7.29,'11111222,11111222,11111222' 
TABS,ioos:station:wmo:42046:1,2009-02-03T09:00:00Z,27.8903,-94.0367,4.0,4.676419571,33.04412515,6.54,'11111222,11111222,11111222' 
TABS,ioos:station:wmo:42046:1,2009-02-03T09:30:00Z,27.8903,-94.0367,4.0,4.529017554,35.65503426,6.52,'11111222,11111222,11111222' 
TABS,ioos:station:wmo:42046:1,2009-02-03T10:00:00Z,27.8903,-94.0367,4.0,4.601010759,28.84870573,6.41,'11111222,11111222,11111222' 
TABS,ioos:station:wmo:42046:1,2009-02-03T10:30:00Z,27.8903,-94.0367,4.0,4.750168418,27.58973259,7.04,'11111222,11111222,11111222' 
TABS,ioos:station:wmo:42046:1,2009-02-03T11:00:00Z,27.8903,-94.0367,4.0,4.759180602,35.59336433,6.34,'11111222,11111222,11111222' 
TABS,ioos:station:wmo:42046:1,2009-02-03T11:30:00Z,27.8903,-94.0367,4.0,4.294985448,38.0969864,6.23,'11111222,11111222,11111222' 
TABS,ioos:station:wmo:42046:1,2009-02-03T12:00:00Z,27.8903,-94.0367,4.0,3.424923357,30.53311887,6.89,'11111222,11111222,11111222' 
TABS,ioos:station:wmo:42046:1,2009-02-03T12:30:00Z,27.8903,-94.0367,4.0,3.39607126,53.50093567,5.18,'11111222,11111222,11111222' 
TABS,ioos:station:wmo:42046:1,2009-02-03T13:00:00Z,27.8903,-94.0367,4.0,3.182090508,53.56190764,4.77,'11111222,11111222,11111222' 
TABS,ioos:station:wmo:42046:1,2009-02-03T13:30:00Z,27.8903,-94.0367,4.0,2.837780823,32.62575862,5.06,'11111222,11111222,11111222' 
TABS,ioos:station:wmo:42046:1,2009-02-03T14:00:00Z,27.8903,-94.0367,4.0,2.4214252,28.89344785,4.09,'11111222,11111222,11111222' 
TABS,ioos:station:wmo:42046:1,2009-02-03T14:30:00Z,27.8903,-94.0367,4.0,1.589024858,49.5939269,3.32,'11111222,11111222,11111222' 
TABS,ioos:station:wmo:42046:1,2009-02-03T15:00:00Z,27.8903,-94.0367,4.0,1.534177304,62.43243605,2.73,'11111222,11111222,11111222' 
TABS,ioos:station:wmo:42046:1,2009-02-03T15:30:00Z,27.8903,-94.0367,4.0,2.388053601,126.4863477,3.78,'11111222,11111222,11111222' 
TABS,ioos:station:wmo:42046:1,2009-02-03T16:00:00Z,27.8903,-94.0367,4.0,1.659186548,153.126353,2.76,'11111222,11111222,11111222' 
TABS,ioos:station:wmo:42046:1,2009-02-03T16:30:00Z,27.8903,-94.0367,4.0,0.992471662,139.0859229,2.34,'11111222,11111222,11111222' 
TABS,ioos:station:wmo:42046:1,2009-02-03T17:00:00Z,27.8903,-94.0367,4.0,0.792275205,184.3434403,1.66,'11111222,11111222,11111222' 
TABS,ioos:station:wmo:42046:1,2009-02-03T17:30:00Z,27.8903,-94.0367,4.0,1.287012043,212.9493485,2.61,'11111222,11111222,11111222' 
TABS,ioos:station:wmo:42046:1,2009-02-03T18:00:00Z,27.8903,-94.0367,4.0,0.565862174,226.4321981,1.68,'11111222,11111222,11111222' 
TABS,ioos:station:wmo:42046:1,2009-02-03T18:30:00Z,27.8903,-94.0367,4.0,0.148660687,227.7264098,0.9,'11111222,11111222,11111222' 
TABS,ioos:station:wmo:42046:1,2009-02-03T19:00:00Z,27.8903,-94.0367,4.0,1.659457743,242.3540893,3.03,'11111222,11111222,11111222' 
TABS,ioos:station:wmo:42046:1,2009-02-03T19:30:00Z,27.8903,-94.0367,4.0,2.323617869,256.5618433,3.51,'11111222,11111222,11111222' 
TABS,ioos:station:wmo:42046:1,2009-02-03T20:00:00Z,27.8903,-94.0367,4.0,3.114883625,251.2742559,4.62,'11111222,11111222,11111222' 
TABS,ioos:station:wmo:42046:1,2009-02-03T20:30:00Z,27.8903,-94.0367,4.0,3.251891757,282.0701173,5.04,'11111222,11111222,11111222' 
TABS,ioos:station:wmo:42046:1,2009-02-03T21:00:00Z,27.8903,-94.0367,4.0,3.521420168,271.6272795,5.45,'11111222,11111222,11111222' 
TABS,ioos:station:wmo:42046:1,2009-02-03T21:30:00Z,27.8903,-94.0367,4.0,3.320677642,276.3973392,5.36,'11111222,11111222,11111222' 
TABS,ioos:station:wmo:42046:1,2009-02-03T22:00:00Z,27.8903,-94.0367,4.0,3.453577855,289.2743423,5.18,'11111222,11111222,11111222' 
TABS,ioos:station:wmo:42046:1,2009-02-03T22:30:00Z,27.8903,-94.0367,4.0,2.913434399,282.8914042,4.62,'11111222,11111222,11111222' 
TABS,ioos:station:wmo:42046:1,2009-02-03T23:00:00Z,27.8903,-94.0367,4.0,3.029884486,279.3068592,5.04,'11111222,11111222,11111222' 
TABS,ioos:station:wmo:42046:1,2009-02-03T23:30:00Z,27.8903,-94.0367,4.0,3.037844631,281.1989398,4.7,'11111222,11111222,11111222' 
TABS,ioos:station:wmo:42046:1,2009-02-04T00:00:00Z,27.8903,-94.0367,4.0,2.602556436,288.3652877,4.36,'11111222,11111222,11111222' 
TABS,ioos:station:wmo:42046:1,2009-02-04T00:30:00Z,27.8903,-94.0367,4.0,2.842551671,279.9262223,4.32,'11111222,11111222,11111222' 
TABS,ioos:station:wmo:42046:1,2009-02-04T01:00:00Z,27.8903,-94.0367,4.0,2.963460815,281.8786727,4.08,'11111222,11111222,11111222' 
TABS,ioos:station:wmo:42046:1,2009-02-04T01:30:00Z,27.8903,-94.0367,4.0,2.819379364,263.2783066,4.08,'11111222,11111222,11111222' 
TABS,ioos:station:wmo:42046:1,2009-02-04T02:00:00Z,27.8903,-94.0367,4.0,2.374742091,273.6214762,3.82,'11111222,11111222,11111222' 
TABS,ioos:station:wmo:42046:1,2009-02-04T02:30:00Z,27.8903,-94.0367,4.0,2.661822684,259.8299454,3.71,'11111222,11111222,11111222' 
TABS,ioos:station:wmo:42046:1,2009-02-04T03:00:00Z,27.8903,-94.0367,4.0,2.182292373,272.6263995,3.46,'11111222,11111222,11111222' 
TABS,ioos:station:wmo:42046:1,2009-02-04T03:30:00Z,27.8903,-94.0367,4.0,2.114828598,300.0808527,3.28,'11111222,11111222,11111222' 
TABS,ioos:station:wmo:42046:1,2009-02-04T04:00:00Z,27.8903,-94.0367,4.0,1.778679285,300.0244954,3.6,'11111222,11111222,11111222' 
TABS,ioos:station:wmo:42046:1,2009-02-04T04:30:00Z,27.8903,-94.0367,4.0,2.083386666,284.1696112,3.37,'11111222,11111222,11111222' 
TABS,ioos:station:wmo:42046:1,2009-02-04T05:00:00Z,27.8903,-94.0367,4.0,2.112486686,287.920288,3.08,'11111222,11111222,11111222' 
TABS,ioos:station:wmo:42046:1,2009-02-04T05:30:00Z,27.8903,-94.0367,4.0,2.981358751,268.2701204,4.1,'11111222,11111222,11111222' 
TABS,ioos:station:wmo:42046:1,2009-02-04T06:00:00Z,27.8903,-94.0367,4.0,2.967237773,258.7279629,4.92,'11111222,11111222,11111222' 
TABS,ioos:station:wmo:42046:1,2009-02-04T06:30:00Z,27.8903,-94.0367,4.0,3.122178726,258.5461354,4.65,'11111222,11111222,11111222' 
TABS,ioos:station:wmo:42046:1,2009-02-04T07:00:00Z,27.8903,-94.0367,4.0,2.915561695,273.5395509,4.59,'11111222,11111222,11111222' 
TABS,ioos:station:wmo:42046:1,2009-02-04T07:30:00Z,27.8903,-94.0367,4.0,2.436739625,261.504134,4.2,'11111222,11111222,11111222' 
TABS,ioos:station:wmo:42046:1,2009-02-04T08:00:00Z,27.8903,-94.0367,4.0,2.883920942,255.3373691,4.54,'11111222,11111222,11111222' 
TABS,ioos:station:wmo:42046:1,2009-02-04T08:30:00Z,27.8903,-94.0367,4.0,2.640700665,262.8211763,3.82,'11111222,11111222,11111222' 
TABS,ioos:station:wmo:42046:1,2009-02-04T09:00:00Z,27.8903,-94.0367,4.0,2.719742635,252.2312927,4.08,'11111222,11111222,11111222' 
TABS,ioos:station:wmo:42046:1,2009-02-04T09:30:00Z,27.8903,-94.0367,4.0,2.321314283,283.1980896,3.7,'11111222,11111222,11111222' 
TABS,ioos:station:wmo:42046:1,2009-02-04T10:00:00Z,27.8903,-94.0367,4.0,2.277059507,278.8417939,3.77,'11111222,11111222,11111222' 
TABS,ioos:station:wmo:42046:1,2009-02-04T10:30:00Z,27.8903,-94.0367,4.0,2.54568262,310.6988488,4.59,'11111222,11111222,11111222' 
TABS,ioos:station:wmo:42046:1,2009-02-04T11:00:00Z,27.8903,-94.0367,4.0,3.298150997,312.5423624,5.01,'11111222,11111222,11111222' 
TABS,ioos:station:wmo:42046:1,2009-02-04T11:30:00Z,27.8903,-94.0367,4.0,3.887029714,334.555516,5.71,'11111222,11111222,11111222' 
TABS,ioos:station:wmo:42046:1,2009-02-04T12:00:00Z,27.8903,-94.0367,4.0,4.775458093,342.3237222,6.13,'11111222,11111222,11111222' 
TABS,ioos:station:wmo:42046:1,2009-02-04T12:30:00Z,27.8903,-94.0367,4.0,7.350516989,9.000761359,9.18,'11111222,11111222,11111222' 
TABS,ioos:station:wmo:42046:1,2009-02-04T13:00:00Z,27.8903,-94.0367,4.0,6.737603431,16.20212996,8.53,'11111222,11111222,11111222' 
TABS,ioos:station:wmo:42046:1,2009-02-04T13:30:00Z,27.8903,-94.0367,4.0,6.464255564,10.78820834,8.28,'11111222,11111222,11111222' 
TABS,ioos:station:wmo:42046:1,2009-02-04T14:00:00Z,27.8903,-94.0367,4.0,5.5343744,24.89779298,7.33,'11111222,11111222,11111222' 
TABS,ioos:station:wmo:42046:1,2009-02-04T14:30:00Z,27.8903,-94.0367,4.0,5.190616534,39.76286822,6.94,'11111222,11111222,11111222' 
TABS,ioos:station:wmo:42046:1,2009-02-04T15:00:00Z,27.8903,-94.0367,4.0,6.160008117,50.59901055,8.52,'11111222,11111222,11111222' 
TABS,ioos:station:wmo:42046:1,2009-02-04T15:30:00Z,27.8903,-94.0367,4.0,7.096766869,65.34854942,9.44,'11111222,11111222,11111222' 
TABS,ioos:station:wmo:42046:1,2009-02-04T16:00:00Z,27.8903,-94.0367,4.0,7.923641839,68.06394464,9.9,'11111222,11111222,11111222' 
TABS,ioos:station:wmo:42046:1,2009-02-04T16:30:00Z,27.8903,-94.0367,4.0,7.886507465,74.78272713,10.17,'11111222,11111222,11111222' 
TABS,ioos:station:wmo:42046:1,2009-02-04T17:00:00Z,27.8903,-94.0367,4.0,7.364299016,79.04061403,10.06,'11111222,11111222,11111222' 
TABS,ioos:station:wmo:42046:1,2009-02-04T17:30:00Z,27.8903,-94.0367,4.0,7.076192479,82.77414892,9.07,'11111222,11111222,11111222' 
TABS,ioos:station:wmo:42046:1,2009-02-04T18:00:00Z,27.8903,-94.0367,4.0,7.181678077,83.12196838,9.47,'11111222,11111222,11111222' 
TABS,ioos:station:wmo:42046:1,2009-02-04T18:30:00Z,27.8903,-94.0367,4.0,7.11683216,76.84206711,10.16,'11111222,11111222,11111222' 